Location: Unspecified
(0.0000°N, 0.0000°E)
Time: 07:06:33
(UTC+02:00)

Hubble Space Telescope - Visible Passes

Search period start: 30 June 2016 00:00
Search period end: 10 July 2016 00:00
Orbit: 539 x 543 km, 28.5° (Epoch: 29 June)

Date Brightness Start Highest point End Pass type
(mag) Time Alt. Az. Time Alt. Az. Time Alt. Az.
30 Jun 3.3 05:40:23 20° NE 05:40:23 20° NE 05:42:36 10° E visible
30 Jun 0.9 07:16:28 10° WNW 07:20:32 56° SSW 07:24:38 10° SE visible
01 Jul 3.7 05:32:39 14° E 05:32:39 14° E 05:33:21 10° E visible
01 Jul 1.3 07:08:08 17° W 07:10:51 38° SSW 07:14:46 10° SE visible
02 Jul 1.8 07:00:16 25° SW 07:01:12 27° SSW 07:04:46 10° SSE visible
03 Jul 2.4 06:52:14 19° SSW 06:52:14 19° SSW 06:54:37 10° SSE visible
04 Jul 3.2 06:44:01 11° S 06:44:01 11° S 06:44:14 10° S visible
